sat.trackr.live / text

‹ back to catalog

YAOGAN-30 03C

NORAD 43030 · 2017-075C

PAYLOAD ACTIVE UNKNOWN

§ Identity

Operator
Country
PRC
Launch date
2017-11-24
Launch site
XICLF
Launch vehicle
Mass (kg)
RCS (m²)

External: N2YO · Heavens-Above · Gunter

§ Orbital elements

Epoch: 2026-09-10T01:59:56.902272Z

Period
95.81 min
Inclination
34.9941°
Eccentricity
0.0001502
Mean motion
15.03051805 rev/d
Perigee alt
556.5 km
Apogee alt
558.5 km
Semi-major
6,935.6 km
B*
1.4274e-4
RAAN
112.6122°
Arg perigee
52.9629°
Mean anomaly
307.1216°
Rev number
48,020

§ Raw data

YAOGAN-30 03C1 43030U 17075C   26253.08329748  .00001933  00000+0  14274-3 0  99952 43030  34.9941 112.6122 0001502  52.9629 307.1216 15.03051805480200

JSON: /api/v1/satellites/43030 · /tle

For live sub-satellite position, see the globe view (requires WebGL).

§ Visibility from observer

Set your observer location to see the next 7 days of passes ≥ 10°. The values pass through the URL so the page stays shareable.

No JS? Fill the form by hand. The geolocation button needs JavaScript.